Lid_Strength_Index
10 9 9 10 11 10 12 12 15 13 12 9 8 9 7 6 5 6 6 5 5 4 4 3 2 2 2 2 1 1 1 1 2 1 1 1 1 1 1 1 1 1 1 1
12 10 10 11 10 9 10 10 10 10 10 7 6 6 6 6 5 6 6 5 5 4 3 3 2 2 2 2 2 1 2 2 1 1 1 1 1 1 1 1 1 1 1 1
16 11 12 14 10 10 9 9 9 11 9 7 7 7 6 6 6 6 5 5 3 3 3 3 2 2 2 2 1 2 2 2 1 1 1 1 1 1 2 2 1 2 2 2
16 12 19 10 7 7 9 8 7 8 7 7 6 6 5 5 5 4 4 4 3 3 3 2 2 2 1 1 2 2 2 3 2 1 2 1 1 2 2 2 2 2 2 1
16 15 12 10 9 10 12 10 8 8 8 7 6 6 5 4 4 4 3 3 3 2 2 2 2 2 2 2 3 3 3 3 3 3 3 3 2 2 2 2 2 2 2 2
14 19 18 12 8 6 6 12 7 7 7 7 6 9 7 4 3 4 3 2 3 3 2 2 2 2 2 4 4 4 4 4 3 4 4 4 4 4 2 2 2 2 2 1
16 17 13 9 7 6 14 13 7 6 6 6 7 6 4 3 3 3 3 3 2 2 3 3 3 3 4 4 4 4 4 4 4 4 4 4 4 4 4 2 2 2 2 2
14 16 17 7 7 11 9 6 5 5 6 6 5 5 5 4 4 3 3 3 3 4 4 4 3 4 4 4 3 4 4 5 4 5 5 5 5 5 4 4 4 3 2 2
13 13 8 6 7 5 4 5 5 5 4 4 5 5 5 5 4 4 4 4 4 6 5 5 4 5 5 5 5 5 5 5 5 5 6 5 6 6 5 5 6 5 4 4
10 8 8 7 5 5 4 5 4 4 4 4 5 5 6 5 5 5 5 6 6 7 7 7 6 6 7 7 6 6 7 7 6 6 6 6 7 6 6 6 6 6 5 5
9 7 6 6 6 5 4 4 4 4 5 5 6 6 6 6 6 8 7 7 8 9 9 9 9 9 8 8 8 8 8 8 8 7 7 7 6 6 6 6 6 6 6 5
11 7 7 7 5 4 4 4 5 5 5 5 5 6 8 9 8 8 9 9 10 10 11 10 10 10 9 10 10 10 10 11 11 11 10 9 9 9 9 9 9 9 9 7
7 5 5 4 4 4 5 5 5 5 5 6 8 9 9 10 10 10 11 11 12 12 13 13 13 13 12 11 11 11 11 12 11 11 11 10 10 9 10 9 10 10 11 10
4 4 5 5 6 5 5 5 5 5 8 9 10 9 10 12 12 12 13 13 14 15 15 15 15 14 13 13 13 13 12 12 12 12 12 12 12 12 11 12 12 11 10 10
4 5 5 5 5 6 6 6 8 9 10 10 9 11 13 13 14 15 15 16 16 16 16 16 16 16 14 14 14 14 14 14 13 12 12 13 13 12 12 12 12 12 11 10
5 6 6 6 7 7 7 8 10 11 11 11 12 14 14 14 16 17 17 17 17 18 18 17 17 16 15 15 16 15 15 14 13 13 13 13 13 13 13 13 12 12 12 11
7 8 8 8 9 8 9 10 11 11 11 13 15 15 16 17 17 17 18 17 18 18 17 17 17 17 16 16 16 16 16 15 15 14 13 12 13 13 13 12 11 11 10 10
6 6 6 7 9 10 11 11 11 12 14 14 15 16 18 18 19 19 19 18 18 18 18 18 18 17 16 15 14 14 15 15 14 13 11 12 11 11 12 12 11 10 10 10
6 7 8 8 9 10 11 11 11 12 13 15 16 17 18 18 19 19 19 19 19 20 19 18 17 17 16 15 13 12 13 13 12 10 9 10 8 7 6 8 8 7 8 9
7 7 8 9 10 10 11 10 11 12 13 15 16 17 19 19 19 19 19 20 20 20 18 18 17 16 16 14 12 8 9 9 10 9 10 9 9 8 7 9 8 7 8 8
7 8 9 10 11 10 10 10 11 12 14 15 16 17 18 19 19 20 20 21 20 19 18 18 17 17 15 14 12 11 10 11 12 11 11 11 10 10 9 8 9 9 8 8
7 8 8 10 11 11 10 11 11 12 13 15 16 17 17 18 18 20 19 21 20 19 19 19 18 17 15 15 13 13 12 13 13 13 13 12 12 12 12 10 10 10 10 8
6 7 7 8 10 11 11 11 11 12 13 16 17 17 18 19 20 21 22 20 20 20 19 19 19 18 16 14 15 14 14 14 15 14 14 14 14 14 15 14 13 12 10 10
7 7 7 7 9 11 12 11 11 12 12 13 16 17 17 19 19 19 20 20 20 20 20 20 19 17 17 16 15 15 15 15 16 16 15 15 15 16 16 15 14 14 13 11
7 7 6 7 8 9 10 11 11 12 12 12 13 16 17 17 18 18 19 20 20 20 20 20 19 18 17 17 17 17 16 16 16 16 16 17 16 16 17 17 16 15 15 16
7 7 6 6 7 7 7 8 9 11 12 13 12 13 14 16 17 17 18 19 20 20 20 20 19 19 18 19 18 18 17 17 16 17 17 17 17 17 17 16 17 17 17 16
7 8 7 7 7 7 7 8 8 9 10 11 12 12 12 14 15 17 17 18 19 20 20 20 20 20 20 20 19 19 18 18 18 17 16 17 17 18 17 17 17 17 17 18